Year,Month,Day,Hour,Minute,Value (Times are PST for temperature in C)
2018,08,07,00,00,19.20
2018,08,07,00,01,19.20
2018,08,07,00,02,19.20
2018,08,07,00,03,19.20
2018,08,07,00,04,19.30
2018,08,07,00,05,19.30
2018,08,07,00,06,19.30
2018,08,07,00,07,19.30
2018,08,07,00,08,19.30
2018,08,07,00,09,19.30
2018,08,07,00,10,19.30
2018,08,07,00,11,19.30
2018,08,07,00,12,19.20
2018,08,07,00,13,19.20
2018,08,07,00,14,19.20
2018,08,07,00,15,19.10
2018,08,07,00,16,19.10
2018,08,07,00,17,19.00
2018,08,07,00,18,19.00
2018,08,07,00,19,18.90
2018,08,07,00,20,18.90
2018,08,07,00,21,18.90
2018,08,07,00,22,18.90
2018,08,07,00,23,18.90
2018,08,07,00,24,18.90
2018,08,07,00,25,18.90
2018,08,07,00,26,18.90
2018,08,07,00,27,18.90
2018,08,07,00,28,18.90
2018,08,07,00,29,18.90
2018,08,07,00,30,18.90
2018,08,07,00,31,18.90
2018,08,07,00,32,18.90
2018,08,07,00,33,18.90
2018,08,07,00,34,18.90
2018,08,07,00,35,18.80
2018,08,07,00,36,18.80
2018,08,07,00,37,18.80
2018,08,07,00,38,18.80
2018,08,07,00,39,18.80
2018,08,07,00,40,18.80
2018,08,07,00,41,18.70
2018,08,07,00,42,18.70
2018,08,07,00,43,18.70
2018,08,07,00,44,18.70
2018,08,07,00,45,18.70
2018,08,07,00,46,18.70
2018,08,07,00,47,18.70
2018,08,07,00,48,18.70
2018,08,07,00,49,18.70
2018,08,07,00,50,18.60
2018,08,07,00,51,18.60
2018,08,07,00,52,18.50
2018,08,07,00,53,18.50
2018,08,07,00,54,18.50
2018,08,07,00,55,18.50
2018,08,07,00,56,18.50
2018,08,07,00,57,18.40
2018,08,07,00,58,18.40
2018,08,07,00,59,18.40
2018,08,07,01,00,18.40
2018,08,07,01,01,18.40
2018,08,07,01,02,18.30
2018,08,07,01,03,18.30
2018,08,07,01,04,18.30
2018,08,07,01,05,18.30
2018,08,07,01,06,18.30
2018,08,07,01,07,18.30
2018,08,07,01,08,18.30
2018,08,07,01,09,18.30
2018,08,07,01,10,18.20
2018,08,07,01,11,18.20
2018,08,07,01,12,18.20
2018,08,07,01,13,18.20
2018,08,07,01,14,18.10
2018,08,07,01,15,18.10
2018,08,07,01,16,18.10
2018,08,07,01,17,18.10
2018,08,07,01,18,18.10
2018,08,07,01,19,18.10
2018,08,07,01,20,18.10
2018,08,07,01,21,18.10
2018,08,07,01,22,18.10
2018,08,07,01,23,18.10
2018,08,07,01,24,18.10
2018,08,07,01,25,18.20
2018,08,07,01,26,18.20
2018,08,07,01,27,18.20
2018,08,07,01,28,18.20
2018,08,07,01,29,18.20
2018,08,07,01,30,18.20
2018,08,07,01,31,18.20
2018,08,07,01,32,18.30
2018,08,07,01,33,18.30
2018,08,07,01,34,18.40
2018,08,07,01,35,18.50
2018,08,07,01,36,18.50
2018,08,07,01,37,18.60
2018,08,07,01,38,18.60
2018,08,07,01,39,18.70
2018,08,07,01,40,18.70
2018,08,07,01,41,18.70
2018,08,07,01,42,18.70
2018,08,07,01,43,18.80
2018,08,07,01,44,18.80
2018,08,07,01,45,19.00
2018,08,07,01,46,19.20
2018,08,07,01,47,19.40
2018,08,07,01,48,19.70
2018,08,07,01,49,19.90
2018,08,07,01,50,20.10
2018,08,07,01,51,20.30
2018,08,07,01,52,20.50
2018,08,07,01,53,20.70
2018,08,07,01,54,20.80
2018,08,07,01,55,20.90
2018,08,07,01,56,21.10
2018,08,07,01,57,21.20
2018,08,07,01,58,21.30
2018,08,07,01,59,21.30
2018,08,07,02,00,21.40
2018,08,07,02,01,21.50
2018,08,07,02,02,21.50
2018,08,07,02,03,21.60
2018,08,07,02,04,21.60
2018,08,07,02,05,21.60
2018,08,07,02,06,21.60
2018,08,07,02,07,21.60
2018,08,07,02,08,21.60
2018,08,07,02,09,21.60
2018,08,07,02,10,21.60
2018,08,07,02,11,21.60
2018,08,07,02,12,21.70
2018,08,07,02,13,21.80
2018,08,07,02,14,21.80
2018,08,07,02,15,21.80
2018,08,07,02,16,21.90
2018,08,07,02,17,21.90
2018,08,07,02,18,21.90
2018,08,07,02,19,22.00
2018,08,07,02,20,22.00
2018,08,07,02,21,22.00
2018,08,07,02,22,22.10
2018,08,07,02,23,22.10
2018,08,07,02,24,22.10
2018,08,07,02,25,22.20
2018,08,07,02,26,22.20
2018,08,07,02,27,22.20
2018,08,07,02,28,22.20
2018,08,07,02,29,22.30
2018,08,07,02,30,22.30
2018,08,07,02,31,22.30
2018,08,07,02,32,22.30
2018,08,07,02,33,22.30
2018,08,07,02,34,22.30
2018,08,07,02,35,22.30
2018,08,07,02,36,22.20
2018,08,07,02,37,22.20
2018,08,07,02,38,22.20
2018,08,07,02,39,22.20
2018,08,07,02,40,22.20
2018,08,07,02,41,22.20
2018,08,07,02,42,22.20
2018,08,07,02,43,22.20
2018,08,07,02,44,22.20
2018,08,07,02,45,22.20
2018,08,07,02,46,22.20
2018,08,07,02,47,22.20
2018,08,07,02,48,22.20
2018,08,07,02,49,22.10
2018,08,07,02,50,22.10
2018,08,07,02,51,22.10
2018,08,07,02,52,22.10
2018,08,07,02,53,22.10
2018,08,07,02,54,22.10
2018,08,07,02,55,22.00
2018,08,07,02,56,22.00
2018,08,07,02,57,22.00
2018,08,07,02,58,22.00
2018,08,07,02,59,21.90
2018,08,07,03,00,21.90
2018,08,07,03,01,21.90
2018,08,07,03,02,21.90
2018,08,07,03,03,21.90
2018,08,07,03,04,21.90
2018,08,07,03,05,21.90
2018,08,07,03,06,21.90
2018,08,07,03,07,21.90
2018,08,07,03,08,21.90
2018,08,07,03,09,21.90
2018,08,07,03,10,21.80
2018,08,07,03,11,21.80
2018,08,07,03,12,21.80
2018,08,07,03,13,21.80
2018,08,07,03,14,21.80
2018,08,07,03,15,21.80
2018,08,07,03,16,21.80
2018,08,07,03,17,21.90
2018,08,07,03,18,21.90
2018,08,07,03,19,21.90
2018,08,07,03,20,22.00
2018,08,07,03,21,22.00
2018,08,07,03,22,22.00
2018,08,07,03,23,22.00
2018,08,07,03,24,22.00
2018,08,07,03,25,21.90
2018,08,07,03,26,21.90
2018,08,07,03,27,21.90
2018,08,07,03,28,21.90
2018,08,07,03,29,21.90
2018,08,07,03,30,21.80
2018,08,07,03,31,21.80
2018,08,07,03,32,21.80
2018,08,07,03,33,21.80
2018,08,07,03,34,21.80
2018,08,07,03,35,21.80
2018,08,07,03,36,21.80
2018,08,07,03,37,21.80
2018,08,07,03,38,21.80
2018,08,07,03,39,21.70
2018,08,07,03,40,21.70
2018,08,07,03,41,21.70
2018,08,07,03,42,21.70
2018,08,07,03,43,21.60
2018,08,07,03,44,21.60
2018,08,07,03,45,21.60
2018,08,07,03,46,21.60
2018,08,07,03,47,21.60
2018,08,07,03,48,21.50
2018,08,07,03,49,21.50
2018,08,07,03,50,21.50
2018,08,07,03,51,21.50
2018,08,07,03,52,21.50
2018,08,07,03,53,21.40
2018,08,07,03,54,21.40
2018,08,07,03,55,21.40
2018,08,07,03,56,21.40
2018,08,07,03,57,21.40
2018,08,07,03,58,21.40
2018,08,07,03,59,21.30
2018,08,07,04,00,21.30
2018,08,07,04,01,21.30
2018,08,07,04,02,21.30
2018,08,07,04,03,21.20
2018,08,07,04,04,21.20
2018,08,07,04,05,21.20
2018,08,07,04,06,21.20
2018,08,07,04,07,21.20
2018,08,07,04,08,21.20
2018,08,07,04,09,21.20
2018,08,07,04,10,21.10
2018,08,07,04,11,21.10
2018,08,07,04,12,21.10
2018,08,07,04,13,21.10
2018,08,07,04,14,21.00
2018,08,07,04,15,21.00
2018,08,07,04,16,21.00
2018,08,07,04,17,21.00
2018,08,07,04,18,21.10
2018,08,07,04,19,21.10
2018,08,07,04,20,21.10
2018,08,07,04,21,21.10
2018,08,07,04,22,21.10
2018,08,07,04,23,21.10
2018,08,07,04,24,21.20
2018,08,07,04,25,21.20
2018,08,07,04,26,21.20
2018,08,07,04,27,21.20
2018,08,07,04,28,21.20
2018,08,07,04,29,21.20
2018,08,07,04,30,21.20
2018,08,07,04,31,21.20
2018,08,07,04,32,21.20
2018,08,07,04,33,21.20
2018,08,07,04,34,21.30
2018,08,07,04,35,21.30
2018,08,07,04,36,21.30
2018,08,07,04,37,21.30
2018,08,07,04,38,21.30
2018,08,07,04,39,21.30
2018,08,07,04,40,21.30
2018,08,07,04,41,21.30
2018,08,07,04,42,21.20
2018,08,07,04,43,21.20
2018,08,07,04,44,21.20
2018,08,07,04,45,21.10
2018,08,07,04,46,21.10
2018,08,07,04,47,21.10
2018,08,07,04,48,21.10
2018,08,07,04,49,21.00
2018,08,07,04,50,21.00
2018,08,07,04,51,21.00
2018,08,07,04,52,21.00
2018,08,07,04,53,21.00
2018,08,07,04,54,21.10
2018,08,07,04,55,21.10
2018,08,07,04,56,21.10
2018,08,07,04,57,21.10
2018,08,07,04,58,21.10
2018,08,07,04,59,21.10
2018,08,07,05,00,21.10
2018,08,07,05,01,21.10
2018,08,07,05,02,21.10
2018,08,07,05,03,21.10
2018,08,07,05,04,21.10
2018,08,07,05,05,21.10
2018,08,07,05,06,21.10
2018,08,07,05,07,21.10
2018,08,07,05,08,21.10
2018,08,07,05,09,21.10
2018,08,07,05,10,21.10
2018,08,07,05,11,21.10
2018,08,07,05,12,21.10
2018,08,07,05,13,21.10
2018,08,07,05,14,21.10
2018,08,07,05,15,21.10
2018,08,07,05,16,21.10
2018,08,07,05,17,21.20
2018,08,07,05,18,21.20
2018,08,07,05,19,21.20
2018,08,07,05,20,21.20
2018,08,07,05,21,21.30
2018,08,07,05,22,21.30
2018,08,07,05,23,21.30
2018,08,07,05,24,21.20
2018,08,07,05,25,21.20
2018,08,07,05,26,21.20
2018,08,07,05,27,21.20
2018,08,07,05,28,21.20
2018,08,07,05,29,21.10
2018,08,07,05,30,21.10
2018,08,07,05,31,21.10
2018,08,07,05,32,21.10
2018,08,07,05,33,21.10
2018,08,07,05,34,21.00
2018,08,07,05,35,21.00
2018,08,07,05,36,20.90
2018,08,07,05,37,20.90
2018,08,07,05,38,20.90
2018,08,07,05,39,20.90
2018,08,07,05,40,20.90
2018,08,07,05,41,20.90
2018,08,07,05,42,20.90
2018,08,07,05,43,20.90
2018,08,07,05,44,20.80
2018,08,07,05,45,20.80
2018,08,07,05,46,20.80
2018,08,07,05,47,20.80
2018,08,07,05,48,20.80
2018,08,07,05,49,20.80
2018,08,07,05,50,20.80
2018,08,07,05,51,20.80
2018,08,07,05,52,20.70
2018,08,07,05,53,20.70
2018,08,07,05,54,20.70
2018,08,07,05,55,20.70
2018,08,07,05,56,20.70
2018,08,07,05,57,20.70
2018,08,07,05,58,20.70
2018,08,07,05,59,20.70
2018,08,07,06,00,20.70
2018,08,07,06,01,20.70
2018,08,07,06,02,20.70
2018,08,07,06,03,20.70
2018,08,07,06,04,20.70
2018,08,07,06,05,20.70
2018,08,07,06,06,20.70
2018,08,07,06,07,20.70
2018,08,07,06,08,20.70
2018,08,07,06,09,20.70
2018,08,07,06,10,20.70
2018,08,07,06,11,20.70
2018,08,07,06,12,20.60
2018,08,07,06,13,20.60
2018,08,07,06,14,20.60
2018,08,07,06,15,20.60
2018,08,07,06,16,20.60
2018,08,07,06,17,20.60
2018,08,07,06,18,20.60
2018,08,07,06,19,20.60
2018,08,07,06,20,20.60
2018,08,07,06,21,20.60
2018,08,07,06,22,20.60
2018,08,07,06,23,20.60
2018,08,07,06,24,20.60
2018,08,07,06,25,20.70
2018,08,07,06,26,20.70
2018,08,07,06,27,20.70
2018,08,07,06,28,20.70
2018,08,07,06,29,20.70
2018,08,07,06,30,20.80
2018,08,07,06,31,20.80
2018,08,07,06,32,20.80
2018,08,07,06,33,20.90
2018,08,07,06,34,20.90
2018,08,07,06,35,21.00
2018,08,07,06,36,21.00
2018,08,07,06,37,21.00
2018,08,07,06,38,21.10
2018,08,07,06,39,21.10
2018,08,07,06,40,21.20
2018,08,07,06,41,21.20
2018,08,07,06,42,21.30
2018,08,07,06,43,21.30
2018,08,07,06,44,21.40
2018,08,07,06,45,21.40
2018,08,07,06,46,21.40
2018,08,07,06,47,21.40
2018,08,07,06,48,21.40
2018,08,07,06,49,21.40
2018,08,07,06,50,21.40
2018,08,07,06,51,21.40
2018,08,07,06,52,21.40
2018,08,07,06,53,21.40
2018,08,07,06,54,21.40
2018,08,07,06,55,21.40
2018,08,07,06,56,21.40
2018,08,07,06,57,21.40
2018,08,07,06,58,21.50
2018,08,07,06,59,21.50
2018,08,07,07,00,21.50
2018,08,07,07,01,21.60
2018,08,07,07,02,21.60
2018,08,07,07,03,21.60
2018,08,07,07,04,21.60
2018,08,07,07,05,21.60
2018,08,07,07,06,21.60
2018,08,07,07,07,21.60
2018,08,07,07,08,21.50
2018,08,07,07,09,21.50
2018,08,07,07,10,21.50
2018,08,07,07,11,21.50
2018,08,07,07,12,21.50
2018,08,07,07,13,21.50
2018,08,07,07,14,21.40
2018,08,07,07,15,21.40
2018,08,07,07,16,21.40
2018,08,07,07,17,21.40
2018,08,07,07,18,21.40
2018,08,07,07,19,21.40
2018,08,07,07,20,21.50
2018,08,07,07,21,21.50
2018,08,07,07,22,21.50
2018,08,07,07,23,21.60
2018,08,07,07,24,21.60
2018,08,07,07,25,21.60
2018,08,07,07,26,21.60
2018,08,07,07,27,21.60
2018,08,07,07,28,21.70
2018,08,07,07,29,21.70
2018,08,07,07,30,21.70
2018,08,07,07,31,21.70
2018,08,07,07,32,21.80
2018,08,07,07,33,21.80
2018,08,07,07,34,21.80
2018,08,07,07,35,21.90
2018,08,07,07,36,21.90
2018,08,07,07,37,21.90
2018,08,07,07,38,22.00
2018,08,07,07,39,22.00
2018,08,07,07,40,22.10
2018,08,07,07,41,22.10
2018,08,07,07,42,22.10
2018,08,07,07,43,22.10
2018,08,07,07,44,22.20
2018,08,07,07,45,22.20
2018,08,07,07,46,22.20
2018,08,07,07,47,22.20
2018,08,07,07,48,22.20
2018,08,07,07,49,22.20
2018,08,07,07,50,22.20
2018,08,07,07,51,22.20
2018,08,07,07,52,22.20
2018,08,07,07,53,22.20
2018,08,07,07,54,22.20
2018,08,07,07,55,22.20
2018,08,07,07,56,22.20
2018,08,07,07,57,22.20
2018,08,07,07,58,22.20
2018,08,07,07,59,22.20
2018,08,07,08,00,22.30
2018,08,07,08,01,22.30
2018,08,07,08,02,22.40
2018,08,07,08,03,22.40
2018,08,07,08,04,22.50
2018,08,07,08,05,22.50
2018,08,07,08,06,22.50
2018,08,07,08,07,22.60
2018,08,07,08,08,22.60
2018,08,07,08,09,22.70
2018,08,07,08,10,22.70
2018,08,07,08,11,22.70
2018,08,07,08,12,22.70
2018,08,07,08,13,22.80
2018,08,07,08,14,22.80
2018,08,07,08,15,22.80
2018,08,07,08,16,22.80
2018,08,07,08,17,22.80
2018,08,07,08,18,22.90
2018,08,07,08,19,22.90
2018,08,07,08,20,22.90
2018,08,07,08,21,22.90
2018,08,07,08,22,23.00
2018,08,07,08,23,23.00
2018,08,07,08,24,23.00
2018,08,07,08,25,23.00
2018,08,07,08,26,23.00
2018,08,07,08,27,23.10
2018,08,07,08,28,23.10
2018,08,07,08,29,23.10
2018,08,07,08,30,23.10
2018,08,07,08,31,23.10
2018,08,07,08,32,23.20
2018,08,07,08,33,23.20
2018,08,07,08,34,23.20
2018,08,07,08,35,23.20
2018,08,07,08,36,23.20
2018,08,07,08,37,23.30
2018,08,07,08,38,23.30
2018,08,07,08,39,23.30
2018,08,07,08,40,23.30
2018,08,07,08,41,23.40
2018,08,07,08,42,23.40
2018,08,07,08,43,23.50
2018,08,07,08,44,23.50
2018,08,07,08,45,23.60
2018,08,07,08,46,23.60
2018,08,07,08,47,23.50
2018,08,07,08,48,23.40
2018,08,07,08,49,23.20
2018,08,07,08,50,23.00
2018,08,07,08,51,22.80
2018,08,07,08,52,22.60
2018,08,07,08,53,22.40
2018,08,07,08,54,22.30
2018,08,07,08,55,22.20
2018,08,07,08,56,22.10
2018,08,07,08,57,22.00
2018,08,07,08,58,21.90
2018,08,07,08,59,21.90
2018,08,07,09,00,21.90
2018,08,07,09,01,22.00
2018,08,07,09,02,22.00
2018,08,07,09,03,22.10
2018,08,07,09,04,22.10
2018,08,07,09,05,22.20
2018,08,07,09,06,22.30
2018,08,07,09,07,22.30
2018,08,07,09,08,22.40
2018,08,07,09,09,22.50
2018,08,07,09,10,22.50
2018,08,07,09,11,22.60
2018,08,07,09,12,22.60
2018,08,07,09,13,22.60
2018,08,07,09,14,22.60
2018,08,07,09,15,22.60
2018,08,07,09,16,22.60
2018,08,07,09,17,22.60
2018,08,07,09,18,22.60
2018,08,07,09,19,22.60
2018,08,07,09,20,22.60
2018,08,07,09,21,22.50
2018,08,07,09,22,22.50
2018,08,07,09,23,22.40
2018,08,07,09,24,22.40
2018,08,07,09,25,22.50
2018,08,07,09,26,22.50
2018,08,07,09,27,22.50
2018,08,07,09,28,22.60
2018,08,07,09,29,22.60
2018,08,07,09,30,22.60
2018,08,07,09,31,22.60
2018,08,07,09,32,22.50
2018,08,07,09,33,22.50
2018,08,07,09,34,22.50
2018,08,07,09,35,22.40
2018,08,07,09,36,22.40
2018,08,07,09,37,22.40
2018,08,07,09,38,22.50
2018,08,07,09,39,22.50
2018,08,07,09,40,22.60
2018,08,07,09,41,22.60
2018,08,07,09,42,22.70
2018,08,07,09,43,22.70
2018,08,07,09,44,22.70
2018,08,07,09,45,22.70
2018,08,07,09,46,22.70
2018,08,07,09,47,22.60
2018,08,07,09,48,22.60
2018,08,07,09,49,22.60
2018,08,07,09,50,22.60
2018,08,07,09,51,22.60
2018,08,07,09,52,22.70
2018,08,07,09,53,22.70
2018,08,07,09,54,22.70
2018,08,07,09,55,22.70
2018,08,07,09,56,22.70
2018,08,07,09,57,22.70
2018,08,07,09,58,22.70
2018,08,07,09,59,22.70
2018,08,07,10,00,22.70
2018,08,07,10,01,22.70
2018,08,07,10,02,22.70
2018,08,07,10,03,22.60
2018,08,07,10,04,22.60
2018,08,07,10,05,22.60
2018,08,07,10,06,22.60
2018,08,07,10,07,22.60
2018,08,07,10,08,22.60
2018,08,07,10,09,22.60
2018,08,07,10,10,22.60
2018,08,07,10,11,22.60
2018,08,07,10,12,22.70
2018,08,07,10,13,22.70
2018,08,07,10,14,22.80
2018,08,07,10,15,22.80
2018,08,07,10,16,22.80
2018,08,07,10,17,22.80
2018,08,07,10,18,22.80
2018,08,07,10,19,22.80
2018,08,07,10,20,22.80
2018,08,07,10,21,22.70
2018,08,07,10,22,22.70
2018,08,07,10,23,22.60
2018,08,07,10,24,22.50
2018,08,07,10,25,22.50
2018,08,07,10,26,22.40
2018,08,07,10,27,22.40
2018,08,07,10,28,22.50
2018,08,07,10,29,22.50
2018,08,07,10,30,22.50
2018,08,07,10,31,22.50
2018,08,07,10,32,22.40
2018,08,07,10,33,22.40
2018,08,07,10,34,22.40
2018,08,07,10,35,22.40
2018,08,07,10,36,22.40
2018,08,07,10,37,22.40
2018,08,07,10,38,22.40
2018,08,07,10,39,22.40
2018,08,07,10,40,22.40
2018,08,07,10,41,22.40
2018,08,07,10,42,22.40
2018,08,07,10,43,22.40
2018,08,07,10,44,22.40
2018,08,07,10,45,22.40
2018,08,07,10,46,22.40
2018,08,07,10,47,22.40
2018,08,07,10,48,22.50
2018,08,07,10,49,22.60
2018,08,07,10,50,22.60
2018,08,07,10,51,22.70
2018,08,07,10,52,22.80
2018,08,07,10,53,22.80
2018,08,07,10,54,22.80
2018,08,07,10,55,22.80
2018,08,07,10,56,22.90
2018,08,07,10,57,22.90
2018,08,07,10,58,22.80
2018,08,07,10,59,22.80
2018,08,07,11,00,22.70
2018,08,07,11,01,22.70
2018,08,07,11,02,22.80
2018,08,07,11,03,22.80
2018,08,07,11,04,22.80
2018,08,07,11,05,22.90
2018,08,07,11,06,22.90
2018,08,07,11,07,22.90
2018,08,07,11,08,22.90
2018,08,07,11,09,22.90
2018,08,07,11,10,22.90
2018,08,07,11,11,22.90
2018,08,07,11,12,22.90
2018,08,07,11,13,22.90
2018,08,07,11,14,22.90
2018,08,07,11,15,22.90
2018,08,07,11,16,22.90
2018,08,07,11,17,22.90
2018,08,07,11,18,23.00
2018,08,07,11,19,23.00
2018,08,07,11,20,23.10
2018,08,07,11,21,23.10
2018,08,07,11,22,23.10
2018,08,07,11,23,23.20
2018,08,07,11,24,23.20
2018,08,07,11,25,23.20
2018,08,07,11,26,23.20
2018,08,07,11,27,23.20
2018,08,07,11,28,23.20
2018,08,07,11,29,23.20
2018,08,07,11,30,23.20
2018,08,07,11,31,23.30
2018,08,07,11,32,23.30
2018,08,07,11,33,23.30
2018,08,07,11,34,23.30
2018,08,07,11,35,23.20
2018,08,07,11,36,23.10
2018,08,07,11,37,23.10
2018,08,07,11,38,23.10
2018,08,07,11,39,23.10
2018,08,07,11,40,23.10
2018,08,07,11,41,23.20
2018,08,07,11,42,23.20
2018,08,07,11,43,23.20
2018,08,07,11,44,23.20
2018,08,07,11,45,23.20
2018,08,07,11,46,23.30
2018,08,07,11,47,23.30
2018,08,07,11,48,23.40
2018,08,07,11,49,23.40
2018,08,07,11,50,23.40
2018,08,07,11,51,23.30
2018,08,07,11,52,23.30
2018,08,07,11,53,23.30
2018,08,07,11,54,23.30
2018,08,07,11,55,23.30
2018,08,07,11,56,23.30
2018,08,07,11,57,23.40
2018,08,07,11,58,23.40
2018,08,07,11,59,23.40
2018,08,07,12,00,23.40
2018,08,07,12,01,23.40
2018,08,07,12,02,23.40
2018,08,07,12,03,23.40
2018,08,07,12,04,23.50
2018,08,07,12,05,23.60
2018,08,07,12,06,23.70
2018,08,07,12,07,23.70
2018,08,07,12,08,23.70
2018,08,07,12,09,23.70
2018,08,07,12,10,23.70
2018,08,07,12,11,23.70
2018,08,07,12,12,23.70
2018,08,07,12,13,23.80
2018,08,07,12,14,23.80
2018,08,07,12,15,23.80
2018,08,07,12,16,23.90
2018,08,07,12,17,23.90
2018,08,07,12,18,23.90
2018,08,07,12,19,24.00
2018,08,07,12,20,24.00
2018,08,07,12,21,24.10
2018,08,07,12,22,24.10
2018,08,07,12,23,24.20
2018,08,07,12,24,24.20
2018,08,07,12,25,24.10
2018,08,07,12,26,24.10
2018,08,07,12,27,24.10
2018,08,07,12,28,24.20
2018,08,07,12,29,24.30
2018,08,07,12,30,24.30
2018,08,07,12,31,24.40
2018,08,07,12,32,24.40
2018,08,07,12,33,24.30
2018,08,07,12,34,24.20
2018,08,07,12,35,24.20
2018,08,07,12,36,24.20
2018,08,07,12,37,24.20
2018,08,07,12,38,24.20
2018,08,07,12,39,24.10
2018,08,07,12,40,24.10
2018,08,07,12,41,24.00
2018,08,07,12,42,23.80
2018,08,07,12,43,23.80
2018,08,07,12,44,23.70
2018,08,07,12,45,23.70
2018,08,07,12,46,23.70
2018,08,07,12,47,23.80
2018,08,07,12,48,23.80
2018,08,07,12,49,23.80
2018,08,07,12,50,23.60
2018,08,07,12,51,23.50
2018,08,07,12,52,23.30
2018,08,07,12,53,23.20
2018,08,07,12,54,23.00
2018,08,07,12,55,22.90
2018,08,07,12,56,22.80
2018,08,07,12,57,22.80
2018,08,07,12,58,22.80
2018,08,07,12,59,22.90
2018,08,07,13,00,22.90
2018,08,07,13,01,23.00
2018,08,07,13,02,23.00
2018,08,07,13,03,23.00
2018,08,07,13,04,23.00
2018,08,07,13,05,22.90
2018,08,07,13,06,22.90
2018,08,07,13,07,23.00
2018,08,07,13,08,23.00
2018,08,07,13,09,23.10
2018,08,07,13,10,23.20
2018,08,07,13,11,23.20
2018,08,07,13,12,23.30
2018,08,07,13,13,23.50
2018,08,07,13,14,23.50
2018,08,07,13,15,23.60
2018,08,07,13,16,23.70
2018,08,07,13,17,23.70
2018,08,07,13,18,23.70
2018,08,07,13,19,23.60
2018,08,07,13,20,23.60
2018,08,07,13,21,23.70
2018,08,07,13,22,23.60
2018,08,07,13,23,23.60
2018,08,07,13,24,23.60
2018,08,07,13,25,23.60
2018,08,07,13,26,23.60
2018,08,07,13,27,23.70
2018,08,07,13,28,23.70
2018,08,07,13,29,23.70
2018,08,07,13,30,23.70
2018,08,07,13,31,23.70
2018,08,07,13,32,23.70
2018,08,07,13,33,23.70
2018,08,07,13,34,23.60
2018,08,07,13,35,23.50
2018,08,07,13,36,23.30
2018,08,07,13,37,23.30
2018,08,07,13,38,23.30
2018,08,07,13,39,23.20
2018,08,07,13,40,23.20
2018,08,07,13,41,23.20
2018,08,07,13,42,23.20
2018,08,07,13,43,23.20
2018,08,07,13,44,23.20
2018,08,07,13,45,23.30
2018,08,07,13,46,23.40
2018,08,07,13,47,23.40
2018,08,07,13,48,23.40
2018,08,07,13,49,23.40
2018,08,07,13,50,23.50
2018,08,07,13,51,23.60
2018,08,07,13,52,23.50
2018,08,07,13,53,23.50
2018,08,07,13,54,23.50
2018,08,07,13,55,23.50
2018,08,07,13,56,23.40
2018,08,07,13,57,23.40
2018,08,07,13,58,23.30
2018,08,07,13,59,23.30
2018,08,07,14,00,23.40
2018,08,07,14,01,23.40
2018,08,07,14,02,23.50
2018,08,07,14,03,23.50
2018,08,07,14,04,23.50
2018,08,07,14,05,23.50
2018,08,07,14,06,23.40
2018,08,07,14,07,23.40
2018,08,07,14,08,23.50
2018,08,07,14,09,23.40
2018,08,07,14,10,23.50
2018,08,07,14,11,23.50
2018,08,07,14,12,23.40
2018,08,07,14,13,23.50
2018,08,07,14,14,23.50
2018,08,07,14,15,23.60
2018,08,07,14,16,23.70
2018,08,07,14,17,23.70
2018,08,07,14,18,23.70
2018,08,07,14,19,23.80
2018,08,07,14,20,23.80
2018,08,07,14,21,23.70
2018,08,07,14,22,23.80
2018,08,07,14,23,23.80
2018,08,07,14,24,23.80
2018,08,07,14,25,23.80
2018,08,07,14,26,23.80
2018,08,07,14,27,23.70
2018,08,07,14,28,23.70
2018,08,07,14,29,23.60
2018,08,07,14,30,23.60
2018,08,07,14,31,23.50
2018,08,07,14,32,23.40
2018,08,07,14,33,23.40
2018,08,07,14,34,23.40
2018,08,07,14,35,23.40
2018,08,07,14,36,23.40
2018,08,07,14,37,23.40
2018,08,07,14,38,23.40
2018,08,07,14,39,23.50
2018,08,07,14,40,23.60
2018,08,07,14,41,23.60
2018,08,07,14,42,23.70
2018,08,07,14,43,23.80
2018,08,07,14,44,23.80
2018,08,07,14,45,23.80
2018,08,07,14,46,23.80
2018,08,07,14,47,23.80
2018,08,07,14,48,23.80
2018,08,07,14,49,23.80
2018,08,07,14,50,23.80
2018,08,07,14,51,23.90
2018,08,07,14,52,23.90
2018,08,07,14,53,23.90
2018,08,07,14,54,23.90
2018,08,07,14,55,24.10
2018,08,07,14,56,24.10
2018,08,07,14,57,24.20
2018,08,07,14,58,24.30
2018,08,07,14,59,24.30
2018,08,07,15,00,24.20
2018,08,07,15,01,24.20
2018,08,07,15,02,24.10
2018,08,07,15,03,24.10
2018,08,07,15,04,24.20
2018,08,07,15,05,24.20
2018,08,07,15,06,24.30
2018,08,07,15,07,24.30
2018,08,07,15,08,24.40
2018,08,07,15,09,24.40
2018,08,07,15,10,24.40
2018,08,07,15,11,24.50
2018,08,07,15,12,24.50
2018,08,07,15,13,24.60
2018,08,07,15,14,24.60
2018,08,07,15,15,24.70
2018,08,07,15,16,24.70
2018,08,07,15,17,24.70
2018,08,07,15,18,24.70
2018,08,07,15,19,24.70
2018,08,07,15,20,24.70
2018,08,07,15,21,24.70
2018,08,07,15,22,24.70
2018,08,07,15,23,24.80
2018,08,07,15,24,24.90
2018,08,07,15,25,25.00
2018,08,07,15,26,25.10
2018,08,07,15,27,25.20
2018,08,07,15,28,25.40
2018,08,07,15,29,25.40
2018,08,07,15,30,25.40
2018,08,07,15,31,25.40
2018,08,07,15,32,25.40
2018,08,07,15,33,25.40
2018,08,07,15,34,25.30
2018,08,07,15,35,25.30
2018,08,07,15,36,25.30
2018,08,07,15,37,25.40
2018,08,07,15,38,25.40
2018,08,07,15,39,25.50
2018,08,07,15,40,25.60
2018,08,07,15,41,25.60
2018,08,07,15,42,25.70
2018,08,07,15,43,25.70
2018,08,07,15,44,25.70
2018,08,07,15,45,25.80
2018,08,07,15,46,25.80
2018,08,07,15,47,25.90
2018,08,07,15,48,25.80
2018,08,07,15,49,25.90
2018,08,07,15,50,25.90
2018,08,07,15,51,25.90
2018,08,07,15,52,25.90
2018,08,07,15,53,26.00
2018,08,07,15,54,26.00
2018,08,07,15,55,25.90
2018,08,07,15,56,25.90
2018,08,07,15,57,25.80
2018,08,07,15,58,25.80
2018,08,07,15,59,25.80
2018,08,07,16,00,25.70
2018,08,07,16,01,25.70
2018,08,07,16,02,25.80
2018,08,07,16,03,25.80
2018,08,07,16,04,25.80
2018,08,07,16,05,25.80
2018,08,07,16,06,25.80
2018,08,07,16,07,25.80
2018,08,07,16,08,25.80
2018,08,07,16,09,25.80
2018,08,07,16,10,25.80
2018,08,07,16,11,25.90
2018,08,07,16,12,25.90
2018,08,07,16,13,26.00
2018,08,07,16,14,26.10
2018,08,07,16,15,26.20
2018,08,07,16,16,26.30
2018,08,07,16,17,26.30
2018,08,07,16,18,26.50
2018,08,07,16,19,26.50
2018,08,07,16,20,26.60
2018,08,07,16,21,26.70
2018,08,07,16,22,26.70
2018,08,07,16,23,26.70
2018,08,07,16,24,26.70
2018,08,07,16,25,26.60
2018,08,07,16,26,26.60
2018,08,07,16,27,26.50
2018,08,07,16,28,26.50
2018,08,07,16,29,26.40
2018,08,07,16,30,26.40
2018,08,07,16,31,26.40
2018,08,07,16,32,26.30
2018,08,07,16,33,26.30
2018,08,07,16,34,26.30
2018,08,07,16,35,26.30
2018,08,07,16,36,26.30
2018,08,07,16,37,26.40
2018,08,07,16,38,26.40
2018,08,07,16,39,26.40
2018,08,07,16,40,26.50
2018,08,07,16,41,26.50
2018,08,07,16,42,26.60
2018,08,07,16,43,26.60
2018,08,07,16,44,26.70
2018,08,07,16,45,26.70
2018,08,07,16,46,26.70
2018,08,07,16,47,26.70
2018,08,07,16,48,26.70
2018,08,07,16,49,26.60
2018,08,07,16,50,26.60
2018,08,07,16,51,26.60
2018,08,07,16,52,26.60
2018,08,07,16,53,26.50
2018,08,07,16,54,26.50
2018,08,07,16,55,26.40
2018,08,07,16,56,26.30
2018,08,07,16,57,26.30
2018,08,07,16,58,26.40
2018,08,07,16,59,26.40
2018,08,07,17,00,26.50
2018,08,07,17,01,26.60
2018,08,07,17,02,26.70
2018,08,07,17,03,26.80
2018,08,07,17,04,26.80
2018,08,07,17,05,27.00
2018,08,07,17,06,27.10
2018,08,07,17,07,27.10
2018,08,07,17,08,27.20
2018,08,07,17,09,27.30
2018,08,07,17,10,27.40
2018,08,07,17,11,27.50
2018,08,07,17,12,27.40
2018,08,07,17,13,27.40
2018,08,07,17,14,27.40
2018,08,07,17,15,27.40
2018,08,07,17,16,27.40
2018,08,07,17,17,27.40
2018,08,07,17,18,27.40
2018,08,07,17,19,27.40